QPF
0.00 0.00 0.00 0.00 0.00 0.00 0.00 0.00 0.00 0.00 0.00 0.00 0.00 0.00 0.00 0.00 0.00 0.00 0.00 0.00 0.00 0.00 0.00 0.00 0.00 0.00 0.00 0.00 0.00 0.00 0.01 0.01 0.02 0.04 0.06 0.09 0.11 0.11
0.00 0.00 0.00 0.00 0.00 0.00 0.00 0.00 0.00 0.00 0.00 0.00 0.00 0.00 0.00 0.00 0.00 0.00 0.00 0.00 0.00 0.00 0.00 0.00 0.00 0.00 0.00 0.00 0.00 0.00 0.00 0.00 0.01 0.01 0.02 0.04 0.06 0.08
0.00 0.00 0.00 0.00 0.00 0.00 0.00 0.00 0.00 0.00 0.00 0.00 0.00 0.00 0.00 0.00 0.00 0.00 0.00 0.00 0.00 0.00 0.00 0.00 0.00 0.00 0.00 0.00 0.00 0.00 0.00 0.00 0.00 0.00 0.01 0.01 0.02 0.03
0.00 0.00 0.00 0.00 0.00 0.00 0.00 0.00 0.00 0.00 0.00 0.00 0.00 0.00 0.00 0.00 0.00 0.00 0.00 0.00 0.00 0.00 0.00 0.00 0.00 0.00 0.00 0.00 0.00 0.00 0.00 0.00 0.00 0.00 0.00 0.00 0.00 0.01
0.00 0.00 0.00 0.00 0.00 0.00 0.00 0.00 0.00 0.00 0.00 0.00 0.00 0.00 0.00 0.00 0.00 0.00 0.00 0.00 0.00 0.00 0.00 0.00 0.00 0.00 0.00 0.00 0.00 0.00 0.00 0.00 0.00 0.00 0.00 0.01 0.00 0.00
0.00 0.00 0.00 0.00 0.00 0.00 0.00 0.00 0.00 0.00 0.00 0.00 0.00 0.00 0.00 0.00 0.00 0.00 0.00 0.00 0.00 0.00 0.00 0.00 0.00 0.00 0.00 0.00 0.00 0.00 0.00 0.00 0.00 0.00 0.00 0.00 0.01 0.01
0.00 0.00 0.00 0.00 0.00 0.00 0.00 0.00 0.00 0.00 0.00 0.01 0.01 0.00 0.00 0.00 0.00 0.00 0.00 0.00 0.00 0.00 0.00 0.00 0.00 0.00 0.00 0.00 0.00 0.00 0.00 0.00 0.00 0.00 0.00 0.00 0.00 0.01
0.00 0.00 0.00 0.00 0.00 0.00 0.00 0.00 0.00 0.00 0.00 0.01 0.00 0.00 0.00 0.00 0.00 0.00 0.00 0.00 0.00 0.00 0.00 0.00 0.00 0.00 0.00 0.00 0.00 0.00 0.00 0.00 0.00 0.00 0.00 0.00 0.00 0.00
0.00 0.00 0.00 0.00 0.00 0.00 0.00 0.00 0.00 0.00 0.00 0.00 0.00 0.00 0.00 0.00 0.01 0.00 0.01 0.01 0.00 0.00 0.00 0.00 0.00 0.00 0.00 0.00 0.00 0.00 0.00 0.00 0.00 0.00 0.00 0.00 0.00 0.00
0.00 0.00 0.00 0.00 0.00 0.00 0.00 0.00 0.00 0.00 0.00 0.00 0.00 0.00 0.00 0.00 0.01 0.01 0.01 0.00 0.00 0.00 0.00 0.00 0.00 0.00 0.00 0.00 0.00 0.00 0.00 0.00 0.00 0.00 0.00 0.00 0.00 0.00
0.00 0.00 0.00 0.00 0.00 0.00 0.00 0.00 0.00 0.00 0.00 0.00 0.00 0.00 0.00 0.00 0.00 0.00 0.00 0.00 0.00 0.00 0.00 0.00 0.00 0.00 0.00 0.00 0.00 0.00 0.00 0.00 0.00 0.00 0.00 0.00 0.00 0.00
0.00 0.00 0.00 0.00 0.00 0.00 0.00 0.00 0.01 0.01 0.00 0.00 0.00 0.00 0.00 0.00 0.00 0.00 0.00 0.00 0.00 0.00 0.00 0.00 0.00 0.00 0.00 0.00 0.00 0.00 0.00 0.00 0.00 0.00 0.00 0.00 0.00 0.00
0.00 0.00 0.00 0.00 0.00 0.00 0.00 0.00 0.01 0.01 0.00 0.00 0.01 0.01 0.01 0.00 0.00 0.00 0.00 0.00 0.00 0.00 0.00 0.01 0.01 0.01 0.01 0.00 0.00 0.00 0.00 0.00 0.00 0.00 0.00 0.00 0.00 0.00
0.00 0.00 0.00 0.01 0.01 0.00 0.00 0.00 0.01 0.01 0.00 0.00 0.00 0.01 0.01 0.01 0.01 0.01 0.01 0.01 0.00 0.00 0.00 0.01 0.01 0.01 0.01 0.01 0.01 0.00 0.00 0.00 0.01 0.01 0.01 0.00 0.00 0.00
0.01 0.01 0.01 0.01 0.01 0.01 0.02 0.02 0.02 0.02 0.01 0.01 0.01 0.01 0.01 0.01 0.01 0.01 0.01 0.01 0.01 0.01 0.01 0.01 0.02 0.02 0.02 0.02 0.01 0.01 0.01 0.01 0.01 0.01 0.01 0.01 0.02 0.02
0.02 0.02 0.01 0.01 0.01 0.02 0.03 0.03 0.03 0.02 0.02 0.02 0.02 0.02 0.01 0.01 0.00 0.00 0.00 0.01 0.01 0.01 0.01 0.01 0.02 0.02 0.02 0.02 0.02 0.01 0.02 0.02 0.02 0.03 0.04 0.03 0.03 0.03
0.03 0.02 0.01 0.02 0.02 0.03 0.03 0.03 0.03 0.03 0.03 0.02 0.02 0.02 0.01 0.01 0.01 0.01 0.01 0.01 0.01 0.00 0.00 0.01 0.02 0.03 0.03 0.03 0.03 0.02 0.03 0.03 0.03 0.05 0.05 0.04 0.03 0.04
0.03 0.02 0.03 0.03 0.04 0.04 0.03 0.03 0.02 0.02 0.01 0.01 0.01 0.01 0.01 0.01 0.01 0.01 0.02 0.02 0.02 0.01 0.01 0.01 0.02 0.03 0.03 0.02 0.02 0.03 0.04 0.04 0.05 0.06 0.06 0.05 0.03 0.03
0.03 0.03 0.03 0.03 0.02 0.02 0.01 0.01 0.01 0.01 0.01 0.01 0.01 0.01 0.02 0.02 0.02 0.02 0.02 0.02 0.02 0.02 0.01 0.01 0.03 0.04 0.04 0.02 0.02 0.03 0.04 0.05 0.06 0.06 0.06 0.06 0.05 0.03
0.03 0.03 0.03 0.03 0.02 0.02 0.02 0.02 0.01 0.01 0.01 0.01 0.01 0.02 0.02 0.02 0.02 0.02 0.02 0.02 0.02 0.02 0.02 0.03 0.04 0.06 0.06 0.05 0.04 0.03 0.03 0.04 0.05 0.05 0.05 0.05 0.05 0.03
0.03 0.03 0.02 0.02 0.02 0.02 0.02 0.01 0.01 0.01 0.01 0.01 0.02 0.02 0.02 0.02 0.02 0.03 0.03 0.03 0.03 0.03 0.02 0.02 0.04 0.05 0.06 0.06 0.05 0.03 0.05 0.05 0.05 0.05 0.06 0.06 0.06 0.06
0.05 0.04 0.03 0.03 0.03 0.02 0.02 0.02 0.02 0.01 0.02 0.02 0.02 0.02 0.02 0.02 0.02 0.03 0.03 0.04 0.04 0.03 0.04 0.04 0.04 0.05 0.06 0.06 0.05 0.04 0.04 0.05 0.05 0.02 0.02 0.03 0.05 0.06
0.03 0.03 0.03 0.03 0.03 0.03 0.03 0.02 0.02 0.02 0.02 0.02 0.02 0.02 0.02 0.03 0.03 0.03 0.03 0.03 0.04 0.04 0.04 0.04 0.05 0.06 0.06 0.06 0.06 0.06 0.05 0.06 0.06 0.05 0.04 0.03 0.02 0.03
MSLP
1018.93 1018.97 1019.00 1019.01 1019.00 1018.95 1018.86 1018.72 1018.55 1018.34 1018.10 1017.87 1017.65 1017.45 1017.30 1017.19 1017.13 1017.12 1017.14 1017.19 1017.25 1017.32 1017.37 1017.41 1017.44 1017.44 1017.42 1017.39 1017.35 1017.30 1017.25 1017.20 1017.16 1017.12 1017.09 1017.06 1017.03 1017.01
1018.95 1019.00 1019.04 1019.06 1019.07 1019.05 1018.99 1018.89 1018.74 1018.56 1018.34 1018.10 1017.85 1017.62 1017.40 1017.22 1017.07 1016.96 1016.90 1016.87 1016.86 1016.88 1016.91 1016.94 1016.96 1016.97 1016.97 1016.95 1016.93 1016.90 1016.86 1016.81 1016.76 1016.71 1016.65 1016.59 1016.52 1016.45
1018.86 1018.91 1018.96 1018.99 1019.01 1019.01 1018.99 1018.92 1018.82 1018.67 1018.47 1018.25 1017.99 1017.73 1017.46 1017.21 1016.99 1016.80 1016.65 1016.54 1016.48 1016.44 1016.43 1016.44 1016.45 1016.46 1016.47 1016.47 1016.47 1016.45 1016.42 1016.38 1016.34 1016.28 1016.21 1016.13 1016.03 1015.92
1018.70 1018.74 1018.78 1018.81 1018.84 1018.86 1018.86 1018.83 1018.76 1018.64 1018.48 1018.27 1018.02 1017.74 1017.44 1017.15 1016.87 1016.62 1016.40 1016.23 1016.10 1016.01 1015.96 1015.93 1015.93 1015.93 1015.94 1015.94 1015.94 1015.93 1015.91 1015.89 1015.85 1015.80 1015.73 1015.64 1015.52 1015.39
1018.49 1018.51 1018.53 1018.55 1018.58 1018.60 1018.61 1018.60 1018.56 1018.47 1018.33 1018.14 1017.91 1017.63 1017.32 1017.01 1016.69 1016.40 1016.14 1015.92 1015.74 1015.60 1015.50 1015.43 1015.39 1015.36 1015.34 1015.33 1015.32 1015.32 1015.31 1015.29 1015.27 1015.23 1015.18 1015.10 1015.00 1014.87
1018.23 1018.23 1018.22 1018.22 1018.24 1018.25 1018.26 1018.26 1018.22 1018.15 1018.03 1017.86 1017.64 1017.37 1017.08 1016.76 1016.44 1016.13 1015.84 1015.58 1015.36 1015.18 1015.03 1014.91 1014.82 1014.75 1014.69 1014.65 1014.62 1014.60 1014.59 1014.58 1014.58 1014.57 1014.55 1014.50 1014.43 1014.33
1017.92 1017.89 1017.86 1017.84 1017.83 1017.83 1017.83 1017.81 1017.77 1017.70 1017.59 1017.43 1017.22 1016.97 1016.69 1016.39 1016.08 1015.77 1015.47 1015.20 1014.95 1014.73 1014.53 1014.36 1014.21 1014.08 1013.97 1013.88 1013.82 1013.78 1013.76 1013.77 1013.79 1013.82 1013.84 1013.84 1013.82 1013.77
1017.54 1017.49 1017.45 1017.41 1017.38 1017.36 1017.33 1017.29 1017.23 1017.15 1017.03 1016.87 1016.67 1016.44 1016.18 1015.90 1015.60 1015.31 1015.02 1014.74 1014.47 1014.22 1013.98 1013.75 1013.54 1013.35 1013.19 1013.05 1012.95 1012.89 1012.87 1012.88 1012.93 1013.00 1013.07 1013.13 1013.17 1013.17
1017.07 1017.03 1016.98 1016.94 1016.89 1016.84 1016.79 1016.72 1016.64 1016.53 1016.39 1016.22 1016.02 1015.80 1015.55 1015.29 1015.02 1014.75 1014.47 1014.19 1013.91 1013.63 1013.36 1013.09 1012.83 1012.58 1012.36 1012.18 1012.05 1011.96 1011.93 1011.96 1012.03 1012.13 1012.25 1012.36 1012.46 1012.52
1016.53 1016.50 1016.47 1016.42 1016.37 1016.31 1016.23 1016.13 1016.01 1015.87 1015.71 1015.52 1015.31 1015.09 1014.85 1014.61 1014.35 1014.09 1013.83 1013.55 1013.27 1012.98 1012.68 1012.38 1012.08 1011.80 1011.54 1011.32 1011.16 1011.06 1011.02 1011.05 1011.13 1011.25 1011.39 1011.54 1011.67 1011.78
1015.94 1015.94 1015.93 1015.89 1015.84 1015.77 1015.67 1015.54 1015.39 1015.21 1015.02 1014.81 1014.58 1014.35 1014.12 1013.88 1013.63 1013.39 1013.13 1012.86 1012.58 1012.28 1011.97 1011.66 1011.34 1011.03 1010.76 1010.52 1010.33 1010.21 1010.16 1010.17 1010.24 1010.36 1010.50 1010.65 1010.79 1010.91
1015.36 1015.38 1015.39 1015.37 1015.32 1015.23 1015.11 1014.96 1014.78 1014.57 1014.35 1014.12 1013.87 1013.63 1013.39 1013.15 1012.91 1012.66 1012.41 1012.15 1011.87 1011.57 1011.27 1010.95 1010.63 1010.32 1010.03 1009.79 1009.59 1009.45 1009.37 1009.35 1009.39 1009.47 1009.58 1009.69 1009.81 1009.90
1014.83 1014.87 1014.88 1014.87 1014.81 1014.71 1014.58 1014.40 1014.20 1013.97 1013.72 1013.47 1013.21 1012.95 1012.70 1012.45 1012.21 1011.96 1011.71 1011.45 1011.17 1010.88 1010.58 1010.28 1009.97 1009.67 1009.38 1009.13 1008.92 1008.76 1008.64 1008.58 1008.55 1008.57 1008.61 1008.66 1008.71 1008.76
1014.40 1014.43 1014.43 1014.40 1014.33 1014.21 1014.06 1013.86 1013.64 1013.39 1013.13 1012.87 1012.60 1012.33 1012.07 1011.82 1011.57 1011.31 1011.05 1010.79 1010.51 1010.23 1009.94 1009.64 1009.35 1009.06 1008.79 1008.54 1008.31 1008.11 1007.95 1007.82 1007.72 1007.65 1007.59 1007.55 1007.52 1007.50
1014.07 1014.07 1014.05 1013.98 1013.88 1013.74 1013.56 1013.35 1013.11 1012.86 1012.59 1012.33 1012.06 1011.79 1011.52 1011.26 1011.00 1010.73 1010.46 1010.18 1009.90 1009.62 1009.33 1009.05 1008.76 1008.49 1008.22 1007.96 1007.72 1007.48 1007.26 1007.06 1006.87 1006.70 1006.54 1006.40 1006.29 1006.19
1013.85 1013.80 1013.72 1013.61 1013.47 1013.29 1013.09 1012.86 1012.62 1012.37 1012.11 1011.85 1011.59 1011.33 1011.06 1010.79 1010.51 1010.23 1009.93 1009.64 1009.34 1009.04 1008.75 1008.46 1008.18 1007.91 1007.64 1007.37 1007.10 1006.83 1006.55 1006.27 1006.00 1005.73 1005.48 1005.25 1005.06 1004.91
1013.70 1013.59 1013.46 1013.29 1013.10 1012.89 1012.66 1012.43 1012.19 1011.95 1011.71 1011.46 1011.22 1010.96 1010.69 1010.41 1010.12 1009.81 1009.49 1009.16 1008.83 1008.50 1008.19 1007.88 1007.58 1007.29 1007.01 1006.72 1006.43 1006.12 1005.79 1005.46 1005.11 1004.77 1004.45 1004.15 1003.91 1003.72
1013.61 1013.44 1013.24 1013.03 1012.80 1012.56 1012.32 1012.08 1011.85 1011.62 1011.40 1011.18 1010.95 1010.71 1010.44 1010.15 1009.83 1009.49 1009.12 1008.75 1008.37 1007.99 1007.63 1007.28 1006.95 1006.64 1006.32 1006.01 1005.69 1005.34 1004.99 1004.61 1004.22 1003.84 1003.48 1003.16 1002.89 1002.70
1013.54 1013.32 1013.08 1012.83 1012.57 1012.32 1012.07 1011.84 1011.63 1011.42 1011.23 1011.03 1010.81 1010.58 1010.31 1010.00 1009.65 1009.26 1008.85 1008.41 1007.96 1007.52 1007.09 1006.69 1006.30 1005.94 1005.59 1005.24 1004.89 1004.52 1004.14 1003.75 1003.35 1002.96 1002.60 1002.28 1002.03 1001.86
1013.48 1013.24 1012.98 1012.71 1012.44 1012.19 1011.96 1011.74 1011.55 1011.37 1011.19 1011.01 1010.81 1010.57 1010.29 1009.96 1009.57 1009.13 1008.65 1008.14 1007.62 1007.09 1006.58 1006.10 1005.64 1005.22 1004.81 1004.43 1004.04 1003.66 1003.28 1002.89 1002.50 1002.13 1001.79 1001.51 1001.29 1001.17
1013.44 1013.20 1012.94 1012.68 1012.43 1012.19 1011.97 1011.78 1011.61 1011.45 1011.29 1011.12 1010.92 1010.68 1010.38 1010.01 1009.58 1009.08 1008.53 1007.94 1007.32 1006.71 1006.11 1005.53 1004.99 1004.49 1004.03 1003.59 1003.18 1002.78 1002.40 1002.02 1001.66 1001.33 1001.04 1000.81 1000.65 1000.57
1013.43 1013.21 1012.98 1012.74 1012.51 1012.30 1012.11 1011.93 1011.78 1011.63 1011.48 1011.31 1011.10 1010.84 1010.51 1010.11 1009.63 1009.07 1008.45 1007.78 1007.08 1006.37 1005.67 1005.00 1004.37 1003.78 1003.24 1002.75 1002.30 1001.89 1001.50 1001.15 1000.83 1000.54 1000.30 1000.13 1000.02 999.99
1013.47 1013.28 1013.08 1012.87 1012.67 1012.48 1012.30 1012.14 1012.00 1011.85 1011.69 1011.51 1011.28 1011.00 1010.64 1010.19 1009.66 1009.05 1008.36 1007.62 1006.84 1006.04 1005.25 1004.48 1003.76 1003.09 1002.48 1001.93 1001.43 1000.99 1000.60 1000.26 999.97 999.73 999.54 999.42 999.36 999.38
Thickness
5719 5716 5717 5718 5717 5717 5715 5714 5710 5707 5708 5706 5705 5704 5701 5699 5695 5694 5694 5690 5688 5686 5685 5684 5683 5683 5682 5681 5681 5680 5680 5680 5680 5680 5680 5680 5680 5680
5714 5713 5712 5715 5713 5712 5712 5711 5709 5707 5705 5707 5703 5703 5697 5697 5693 5692 5691 5689 5687 5685 5683 5682 5681 5680 5680 5679 5679 5678 5678 5678 5677 5677 5677 5677 5678 5678
5711 5710 5708 5708 5709 5709 5708 5706 5705 5704 5700 5702 5701 5698 5692 5691 5691 5690 5690 5689 5691 5686 5683 5681 5680 5679 5678 5677 5677 5676 5676 5675 5675 5675 5674 5674 5674 5674
5709 5707 5706 5705 5702 5704 5703 5702 5700 5698 5696 5693 5695 5695 5690 5689 5687 5686 5689 5690 5688 5686 5683 5681 5679 5677 5676 5675 5675 5674 5673 5673 5672 5672 5672 5671 5671 5670
5708 5705 5703 5702 5698 5700 5697 5698 5697 5696 5692 5691 5691 5690 5689 5688 5685 5685 5687 5684 5685 5687 5683 5681 5678 5676 5675 5674 5673 5672 5671 5671 5670 5669 5668 5668 5667 5667
5705 5703 5701 5699 5696 5694 5693 5691 5691 5690 5688 5687 5687 5687 5686 5685 5682 5682 5684 5685 5684 5684 5683 5681 5678 5676 5675 5674 5673 5671 5670 5668 5667 5666 5665 5664 5664 5663
5702 5701 5699 5696 5693 5691 5692 5690 5688 5686 5686 5685 5684 5684 5683 5679 5679 5680 5679 5678 5680 5680 5679 5679 5679 5679 5678 5676 5672 5670 5668 5666 5664 5663 5662 5661 5660 5659
5699 5698 5696 5692 5688 5684 5683 5681 5679 5679 5680 5679 5680 5678 5674 5675 5674 5672 5672 5672 5671 5676 5673 5673 5674 5675 5675 5675 5673 5669 5665 5662 5660 5659 5657 5656 5656 5655
5697 5695 5695 5695 5688 5687 5682 5676 5674 5671 5669 5670 5672 5671 5670 5670 5666 5665 5664 5663 5663 5666 5665 5666 5669 5669 5671 5672 5668 5664 5661 5658 5656 5655 5653 5652 5651 5650
5694 5692 5690 5689 5687 5683 5681 5679 5677 5675 5670 5666 5666 5665 5665 5662 5660 5658 5656 5657 5659 5661 5660 5658 5662 5663 5666 5665 5663 5659 5656 5653 5651 5649 5648 5647 5645 5644
5691 5690 5687 5685 5681 5675 5673 5672 5672 5672 5669 5665 5662 5659 5656 5653 5650 5649 5651 5651 5654 5658 5659 5654 5655 5656 5658 5658 5658 5655 5652 5648 5646 5644 5642 5641 5639 5637
5688 5686 5681 5679 5675 5670 5667 5667 5665 5665 5665 5664 5658 5655 5652 5650 5646 5641 5643 5644 5646 5648 5651 5646 5646 5645 5646 5650 5650 5648 5646 5643 5640 5638 5636 5634 5631 5628
5688 5686 5684 5675 5668 5663 5660 5660 5659 5656 5656 5655 5655 5654 5652 5650 5647 5643 5640 5637 5637 5638 5640 5637 5635 5634 5633 5636 5638 5638 5637 5636 5634 5632 5629 5627 5624 5620
5682 5681 5679 5670 5663 5658 5655 5654 5649 5645 5647 5649 5649 5649 5647 5646 5644 5641 5636 5631 5628 5626 5626 5623 5622 5620 5620 5622 5625 5627 5626 5625 5623 5622 5621 5620 5616 5613
5675 5672 5666 5660 5656 5653 5649 5646 5642 5641 5643 5643 5642 5642 5641 5639 5635 5631 5628 5624 5621 5619 5618 5615 5612 5611 5610 5609 5611 5613 5612 5613 5612 5611 5610 5609 5609 5607
5664 5662 5656 5652 5649 5648 5646 5643 5641 5641 5640 5637 5636 5634 5633 5629 5625 5623 5620 5618 5615 5614 5612 5608 5604 5602 5600 5600 5599 5600 5600 5599 5600 5599 5598 5598 5598 5598
5660 5657 5656 5654 5651 5649 5647 5644 5641 5638 5633 5630 5627 5625 5623 5620 5617 5614 5610 5607 5604 5603 5602 5601 5598 5594 5592 5589 5588 5589 5589 5589 5588 5587 5584 5585 5588 5588
5649 5650 5649 5647 5646 5644 5641 5638 5634 5631 5627 5622 5619 5616 5613 5610 5607 5604 5600 5596 5592 5591 5590 5589 5586 5584 5582 5584 5579 5577 5577 5577 5577 5576 5574 5574 5578 5581
5642 5644 5642 5641 5639 5636 5633 5629 5626 5623 5618 5614 5610 5607 5603 5599 5596 5592 5588 5585 5583 5581 5579 5576 5573 5569 5567 5570 5574 5567 5564 5564 5563 5564 5565 5566 5568 5572
5638 5637 5636 5633 5629 5625 5622 5619 5616 5612 5608 5604 5600 5597 5593 5589 5585 5581 5578 5575 5572 5570 5568 5566 5562 5559 5555 5554 5558 5559 5554 5553 5554 5555 5557 5559 5561 5563
5633 5631 5627 5623 5619 5615 5611 5608 5604 5601 5597 5593 5589 5586 5582 5578 5574 5571 5567 5563 5558 5557 5556 5555 5553 5547 5544 5543 5545 5550 5551 5547 5545 5545 5547 5549 5553 5556
5624 5621 5616 5612 5608 5604 5600 5596 5592 5588 5584 5580 5577 5573 5570 5566 5562 5559 5557 5554 5551 5548 5547 5546 5543 5539 5537 5535 5537 5540 5543 5544 5543 5541 5540 5541 5542 5547
5612 5608 5604 5600 5596 5591 5587 5583 5578 5575 5571 5568 5564 5561 5558 5555 5551 5549 5547 5544 5541 5538 5536 5535 5535 5533 5532 5531 5531 5534 5537 5539 5541 5542 5542 5542 5539 5539